When you browse on this site, cookies collect data to enhance your experience and personalize the content and advertising you see.
Visit our Privacy Policy to learn more. By continuing to use the site, you agree to this use of cookies and data.
  • In Spain
  • List of Countries
  • For 7 days
  • Water Temperature
  • Satellite Maps
  • Weather Map
  • Weather Widgets
  • user-avatar
    Login

    Hourly Weather Kipungo

    Today, 23 July, Tuesday

    Time Temperature Precipitation Wind Pressure Humidity
    00:00 +14°C° 0 mm 2 mps 653 mmHg 38%
    01:00 +12°C° 0 mm 1 mps 653 mmHg 37%
    02:00 +12°C° 0 mm 1 mps 653 mmHg 43%
    03:00 +11°C° 0 mm 1 mps 653 mmHg 48%
    04:00 +9°C° 0 mm 0 mps 652 mmHg 54%
    05:00 +9°C° 0 mm 0 mps 653 mmHg 53%
    06:00 +9°C° 0 mm 0 mps 653 mmHg 52%
    07:00 +10°C° 0 mm 0 mps 653 mmHg 47%
    08:00 +15°C° 0 mm 0 mps 655 mmHg 36%
    09:00 +20°C° 0 mm 0 mps 656 mmHg 25%
    10:00 +28°C° 0 mm 1 mps 658 mmHg 14%
    11:00 +29°C° 0 mm 1 mps 657 mmHg 13%
    12:00 +31°C° 0 mm 1 mps 657 mmHg 12%
    13:00 +34°C° 0 mm 2 mps 657 mmHg 10%
    14:00 +33°C° 0 mm 1 mps 656 mmHg 10%
    15:00 +32°C° 0 mm 1 mps 655 mmHg 10%
    16:00 +32°C° 0 mm 1 mps 655 mmHg 10%
    17:00 +28°C° 0 mm 1 mps 654 mmHg 13%
    18:00 +25°C° 0 mm 1 mps 654 mmHg 16%
    19:00 +21°C° 0 mm 1 mps 653 mmHg 20%
    20:00 +20°C° 0 mm 1 mps 653 mmHg 22%
    21:00 +18°C° 0 mm 1 mps 653 mmHg 25%
    22:00 +16°C° 0 mm 2 mps 654 mmHg 27%
    23:00 +15°C° 0 mm 2 mps 653 mmHg 33%

    Tomorrow, 24 July, Wednesday

    Time Temperature Precipitation Wind Pressure Humidity
    00:00 +14°C° 0 mm 1 mps 653 mmHg 39%
    01:00 +13°C° 0 mm 1 mps 652 mmHg 44%
    02:00 +12°C° 0 mm 1 mps 652 mmHg 48%
    03:00 +10°C° 0 mm 0 mps 652 mmHg 51%
    04:00 +10°C° 0 mm 0 mps 651 mmHg 54%
    05:00 +10°C° 0 mm 0 mps 651 mmHg 51%
    06:00 +10°C° 0 mm 0 mps 652 mmHg 49%
    07:00 +11°C° 0 mm 1 mps 652 mmHg 46%
    08:00 +15°C° 0 mm 1 mps 653 mmHg 36%
    09:00 +20°C° 0 mm 2 mps 654 mmHg 26%
    10:00 +25°C° 0 mm 2 mps 656 mmHg 16%
    11:00 +28°C° 0 mm 2 mps 655 mmHg 14%
    12:00 +30°C° 0 mm 3 mps 655 mmHg 12%
    13:00 +33°C° 0 mm 3 mps 655 mmHg 10%
    14:00 +32°C° 0 mm 2 mps 655 mmHg 10%
    15:00 +32°C° 0 mm 2 mps 654 mmHg 9%
    16:00 +33°C° 0 mm 1 mps 654 mmHg 9%
    17:00 +29°C° 0 mm 1 mps 654 mmHg 12%
    18:00 +26°C° 0 mm 1 mps 653 mmHg 14%
    19:00 +21°C° 0 mm 2 mps 653 mmHg 17%
    20:00 +20°C° 0 mm 2 mps 653 mmHg 19%
    21:00 +19°C° 0 mm 1 mps 653 mmHg 22%
    22:00 +16°C° 0 mm 1 mps 654 mmHg 25%
    23:00 +16°C° 0 mm 1 mps 653 mmHg 27%

    Day after tomorrow, 25 July, Thursday

    Time Temperature Precipitation Wind Pressure Humidity
    00:00 +15°C° 0 mm 2 mps 653 mmHg 30%
    01:00 +14°C° 0 mm 2 mps 653 mmHg 33%
    02:00 +13°C° 0 mm 1 mps 653 mmHg 35%
    03:00 +12°C° 0 mm 1 mps 652 mmHg 37%
    04:00 +11°C° 0 mm 1 mps 652 mmHg 39%
    05:00 +11°C° 0 mm 1 mps 652 mmHg 37%
    06:00 +11°C° 0 mm 1 mps 653 mmHg 36%
    07:00 +11°C° 0 mm 1 mps 653 mmHg 34%
    08:00 +16°C° 0 mm 1 mps 654 mmHg 28%
    09:00 +20°C° 0 mm 2 mps 655 mmHg 22%
    10:00 +26°C° 0 mm 3 mps 657 mmHg 16%
    11:00 +28°C° 0 mm 3 mps 656 mmHg 13%
    12:00 +30°C° 0 mm 3 mps 656 mmHg 11%
    13:00 +34°C° 0 mm 3 mps 656 mmHg 8%
    14:00 +34°C° 0 mm 2 mps 656 mmHg 8%
    15:00 +34°C° 0 mm 2 mps 655 mmHg 8%
    16:00 +34°C° 0 mm 2 mps 655 mmHg 7%
    17:00 +29°C° 0 mm 1 mps 654 mmHg 10%
    18:00 +25°C° 0 mm 1 mps 654 mmHg 12%
    19:00 +22°C° 0 mm 1 mps 654 mmHg 15%
    20:00 +20°C° 0 mm 1 mps 654 mmHg 17%
    21:00 +18°C° 0 mm 2 mps 654 mmHg 20%
    22:00 +16°C° 0 mm 2 mps 654 mmHg 23%
    23:00 +15°C° 0 mm 1 mps 654 mmHg 27%

    26 July, Friday

    Time Temperature Precipitation Wind Pressure Humidity
    00:00 +13°C° 0 mm 1 mps 653 mmHg 32%
    01:00 +12°C° 0 mm 1 mps 653 mmHg 37%
    02:00 +11°C° 0 mm 1 mps 652 mmHg 36%
    03:00 +11°C° 0 mm 1 mps 652 mmHg 35%
    04:00 +9°C° 0 mm 0 mps 652 mmHg 35%
    05:00 +10°C° 0 mm 1 mps 652 mmHg 33%
    06:00 +10°C° 0 mm 1 mps 653 mmHg 31%
    07:00 +10°C° 0 mm 1 mps 653 mmHg 29%
    08:00 +15°C° 0 mm 1 mps 654 mmHg 23%
    09:00 +20°C° 0 mm 2 mps 656 mmHg 17%
    10:00 +26°C° 0 mm 3 mps 657 mmHg 11%
    11:00 +28°C° 0 mm 3 mps 656 mmHg 10%
    12:00 +31°C° 0 mm 3 mps 656 mmHg 8%
    13:00 +34°C° 0 mm 3 mps 656 mmHg 6%
    14:00 +34°C° 0 mm 2 mps 655 mmHg 6%
    15:00 +34°C° 0 mm 2 mps 655 mmHg 6%
    16:00 +34°C° 0 mm 2 mps 655 mmHg 6%
    17:00 +29°C° 0 mm 1 mps 654 mmHg 8%
    18:00 +25°C° 0 mm 1 mps 654 mmHg 10%
    19:00 +21°C° 0 mm 1 mps 653 mmHg 13%
    20:00 +20°C° 0 mm 1 mps 653 mmHg 14%
    21:00 +18°C° 0 mm 1 mps 654 mmHg 16%
    22:00 +16°C° 0 mm 1 mps 654 mmHg 18%
    23:00 +14°C° 0 mm 1 mps 653 mmHg 21%

    27 July, Saturday

    Time Temperature Precipitation Wind Pressure Humidity
    00:00 +13°C° 0 mm 1 mps 653 mmHg 24%
    01:00 +12°C° 0 mm 1 mps 652 mmHg 26%
    02:00 +11°C° 0 mm 1 mps 652 mmHg 27%
    03:00 +10°C° 0 mm 0 mps 652 mmHg 27%
    04:00 +9°C° 0 mm 0 mps 652 mmHg 27%
    05:00 +9°C° 0 mm 0 mps 652 mmHg 27%
    06:00 +10°C° 0 mm 1 mps 653 mmHg 26%
    07:00 +11°C° 0 mm 1 mps 653 mmHg 26%
    08:00 +16°C° 0 mm 1 mps 654 mmHg 21%
    09:00 +20°C° 0 mm 2 mps 655 mmHg 16%
    10:00 +26°C° 0 mm 3 mps 656 mmHg 11%
    11:00 +29°C° 0 mm 3 mps 656 mmHg 9%
    12:00 +31°C° 0 mm 3 mps 656 mmHg 8%
    13:00 +34°C° 0 mm 2 mps 655 mmHg 7%
    14:00 +34°C° 0 mm 2 mps 655 mmHg 6%
    15:00 +33°C° 0 mm 1 mps 655 mmHg 6%
    16:00 +33°C° 0 mm 1 mps 654 mmHg 6%
    17:00 +29°C° 0 mm 1 mps 654 mmHg 8%
    18:00 +25°C° 0 mm 1 mps 653 mmHg 10%
    19:00 +21°C° 0 mm 1 mps 653 mmHg 12%
    20:00 +19°C° 0 mm 1 mps 653 mmHg 16%
    21:00 +18°C° 0 mm 1 mps 653 mmHg 19%
    22:00 +15°C° 0 mm 2 mps 653 mmHg 22%
    23:00 +14°C° 0 mm 2 mps 653 mmHg 31%

    28 July, Sunday

    Time Temperature Precipitation Wind Pressure Humidity
    00:00 +13°C° 0 mm 1 mps 652 mmHg 40%
    01:00 +12°C° 0 mm 1 mps 652 mmHg 48%
    02:00 +11°C° 0 mm 1 mps 652 mmHg 49%
    03:00 +11°C° 0 mm 1 mps 651 mmHg 50%
    04:00 +9°C° 0 mm 0 mps 651 mmHg 51%
    05:00 +9°C° 0 mm 0 mps 651 mmHg 48%
    06:00 +9°C° 0 mm 0 mps 652 mmHg 45%
    07:00 +9°C° 0 mm 0 mps 652 mmHg 43%
    08:00 +15°C° 0 mm 1 mps 654 mmHg 33%
    09:00 +20°C° 0 mm 2 mps 655 mmHg 23%
    10:00 +26°C° 0 mm 2 mps 656 mmHg 14%
    11:00 +29°C° 0 mm 2 mps 656 mmHg 11%
    12:00 +31°C° 0 mm 2 mps 656 mmHg 9%
    13:00 +35°C° 0 mm 2 mps 656 mmHg 7%
    14:00 +35°C° 0 mm 2 mps 655 mmHg 7%
    15:00 +35°C° 0 mm 2 mps 655 mmHg 7%
    16:00 +34°C° 0 mm 1 mps 654 mmHg 6%
    17:00 +30°C° 0 mm 1 mps 654 mmHg 11%
    18:00 +26°C° 0 mm 2 mps 654 mmHg 15%
    19:00 +21°C° 0 mm 2 mps 653 mmHg 20%
    20:00 +19°C° 0 mm 2 mps 653 mmHg 30%
    21:00 +17°C° 0 mm 2 mps 653 mmHg 41%
    22:00 +16°C° 0 mm 2 mps 654 mmHg 52%
    23:00 +15°C° 0 mm 1 mps 653 mmHg 57%
    Show more